User: anonymous   Login
Location: Colle Pacifico
(43.5333°N, 13.3167°E)
Time: 13:18:09
(UTC+00:00)
Language:

IRS-1D - Orbit

View from above orbital plane
View from above orbital plane
View from above satellite
View from above satellite

Ground track
Ground track

The orbit data is extracted from the following two-line orbital elements,

1 24971U 97057A   20218.61314534 -.00000010  00000-0  11862-4 0  9995
2 24971  98.5671 162.8808 0054433  66.1027 294.5858 14.33999044195579
Epoch (UTC): 05 August 2020 14:42:55
Eccentricity: 0.0054433
inclination: 98.5671°
perigee height: 739 km
apogee height: 817 km
right ascension of ascending node: 162.8808°
argument of perigee: 66.1027°
revolutions per day: 14.33999044
mean anomaly at epoch: 294.5858°
orbit number at epoch: 19557

The dashed part of the orbit path shows where the satellite is in the earth's shadow,  

DLR